Regional Weather Roundup
Issued by NWS Cleveland, OH

Home | Current Version | Previous Version | Graphics & Text | Print | Product List | Glossary On
Versions: 1 2 3 4 5 6 7 8 9 10 11 12 13 14 15 16 17 18 19 20 21 22 23 24 25 26 27 28 29 30 31 32 33 34 35 36 37 38 39 40 41 42 43 44 45 46 47 48 49 50
000
ASUS41 KCLE 241410
RWRCLE
OHIO REGIONAL WEATHER ROUNDUP
NATIONAL WEATHER SERVICE CLEVELAND, OH
1000 AM EDT FRI MAR 24 2017

NOTE: "FAIR" INDICATES FEW OR NO CLOUDS BELOW 12,000 FEET WITH NO
SIGNIFICANT WEATHER AND/OR OBSTRUCTIONS TO VISIBILITY.

OHZ001>008-015>018-024>027-034-035-043-044-241500-
   NORTHWEST OHIO

CITY           SKY/WX    TMP DP  RH WIND       PRES   REMARKS
DEFIANCE       CLOUDY    53  43  68 S20G28    30.05F
FINDLAY        PTSUNNY   57  44  62 SW22G36   30.08F
TOLEDO EXPRESS CLOUDY    56  45  66 SW21G30   30.03F
TOLEDO EXEC    CLOUDY    57  47  69 SW23G29   30.05F
LIMA           CLOUDY    56  45  66 S18G29    30.12S
$$

OHZ009>014-019>023-028>033-038-089-241500-
   NORTHEAST OHIO

CITY           SKY/WX    TMP DP  RH WIND       PRES   REMARKS
CLE-HOPKINS    CLOUDY    56  38  50 S18G28    30.11F
CLE-LAKEFRONT  MOSUNNY   58  40  51 S23G33    30.05F
CUY CO. ARPT   PTSUNNY   57  41  54 SW17G32   30.08F
LORAIN-ELYRIA  MOSUNNY   55  42  61 SW14      30.09F
ASHTABULA      CLOUDY    54  40  59 S17G26    30.09F
AKRON-CANTON   CLOUDY    54  39  57 SW18G28   30.16S
WOOSTER        MOSUNNY   52  38  58 SW17      30.15F
MANSFIELD      CLOUDY    57  44  62 S24G40    30.14S
YOUNGSTOWN     CLOUDY    53  37  54 SW21G33   30.16R
$$

OHZ042-051>053-060>062-070>072-077>081-241500-
  SOUTHWEST OHIO

CITY           SKY/WX    TMP DP  RH WIND       PRES   REMARKS
CINC-COVINGTON PTSUNNY   60  46  59 SW16G23   30.20R
CINC-LUNKEN    CLOUDY    57  45  64 S9        30.22R
HAMILTON       CLOUDY    59  45  59 S9        30.21R
DAYTON         PTSUNNY   56  42  59 S17G24    30.18S
WRIGHT-PAT AFB CLOUDY    57  45  62 S18       30.19S
DAYTON GENERAL CLOUDY    56  43  61 S16       30.19R
WILMINGTON     MOSUNNY   56  44  64 SW17G24   30.21R
$$

OHZ036-037-039>041-045>050-054>059-063>069-073>076-082>088-241500-
  CENTRAL AND SOUTHEAST OHIO

CITY           SKY/WX    TMP DP  RH WIND       PRES   REMARKS
COLUMBUS       CLOUDY    58  41  53 SW15G22   30.21S
OSU AIRPORT    CLOUDY    58  43  57 S15       30.20S
BOLTON FIELD   MOSUNNY   55  43  62 SW16      30.21S
RICKENBACK AFB MOSUNNY   57  42  57 S12       30.21S
NEWARK         CLOUDY    57  41  55 MISG      30.21R
MARION         MOSUNNY   55  42  61 SW20G30   30.16S
LANCASTER      PTSUNNY   60  42  51 SW13G20   30.23R
ZANESVILLE     CLOUDY    57  35  43 S10       30.23R
NEW PHILLY     NOT AVBL
$$




USA.gov is the U.S. government's official web portal to all federal, state and local government web resources and services.